TITAN 3C TRANSTAGE DEB, 3494

Orbit data source: Space-Track

TITAN 3C TRANSTAGE DEB, 3494 is space debris in LEO originally from a launch on Fri, 15 Oct 1965 UTC launched from the Air Force Eastern Test Range (AFETR). Debris objects in space refer to the collection of defunct objects orbiting the Earth. Examples of debris include non-operational satellites, rocket bodies, and fragments generated from explosions, collisions, or faulty payload assembly.

Loading next visibility...
Identifier
3494, 1965-082QQ
Orbit
LEO
Country
Flag of USUS
Related business
Manufacturer
Unknown
Mission
Spacecraft
Bus & Motor
Unknown
Mass
Unknown
Launch date (UTC)
1965-10-15 (61 years ago)
Launch vehicle
Unknown
Launch site
Air Force Eastern Test Range (AFETR)
Object type
Payload
Rocket body
Debris
Shape & HBR
Unknown shape, 0.1 m
Radar Cross Section
Small (<0.1 m²)

Expand to show TLE details & history
Last TLE update: 14 hours ago

TLE from 14 hours ago
0 TITAN 3C TRANSTAGE DEB
1 03494U 65082QQ  26107.18296084  .00000397  00000-0  68945-4 0  9990
2 03494  31.8901 132.2867 0027170 287.4559  72.3113 14.62010858196514
Epoch: 2026-04-17T04:23Z
TLE epoch observation values (Epoch: 2026-04-17T04:23:27.816Z)
Latitude
0.00002°
Longitude
-138.89899°
Altitude
679.532 km
Speed
7.522 km/s
True Right ascension
08h 49m 08s
True Declination
0° 00' 00"
Sunlit
Object was in daylight at epoch
Visualization orbit readout
Latitude
Unknown
Longitude
Unknown
Altitude
Unknown
Speed
Unknown
Apparent Right ascension
Unknown
Apparent Declination
Unknown
Sunlit
N/A
Visualization observer readout
Local Sidereal Time
01:09:00
Azimuth
Unknown
Elevation
Unknown
Doppler factor
Unknown
Orbital elements
Apogee altitude
709.523 km
Perigee altitude
671.113 km
Semi-major axis
7,068.455 km
Eccentricity
0.00272
Inclination
31.8901°
RAAN
132.2867°
Arg. of periapsis
287.4559°
True anomaly
72.60823°
Mean anomaly
72.3113°
Eccentric anomaly
72.45973°
Mean motion
3.65222 °/min
Orbital period
98.57 mins
BSTAR
0.000068945

Documentation

Showing up to 5 results
|